Home > Weather > Florianópolis > Past weeks

Flag for Brazil Weather for the Past 2 Weeks in Florianópolis, Santa Catarina, Brazil

Now
73 °F

Passing clouds.


Feels Like: 76 °F
Forecast: 60 / 72 °F
Wind: 6 mph from Southeast

Location: Florianopolis Aeroporto

Current Time: May 4, 2016 at 12:48:38 PM

Latest Report: May 4, 2016 at 12:00 PM


Visibility: N/A

Pressure: 30.09 "Hg

Humidity: 65%

Dew Point: 61 °F

Location of FlorianópolisLocation

Historic Weather in Florianópolis — Graph

°F

Florianópolis Temperature Yesterday

Maximum temperature yesterday: 72 °F (at 1:00 PM)
Minimum temperature yesterday: 57 °F (at 3:00 AM)
Average temperature yesterday: 64 °F

High & Low Weather Summary for the Past Weeks

 TemperatureHumidityPressure
High93 °F (Apr 20, 2:00 PM)94% (Apr 21, 10:00 PM)30.21 "Hg (Apr 21, 10:00 PM)
Low50 °F (Apr 28, 3:00 AM)25% (Apr 22, 10:00 AM)29.56 "Hg (Apr 25, 2:00 PM)
Average69 °F73%29.97 "Hg
* Reported Apr 19 11:00 AM — May 4 11:00 AM, Florianópolis, Weather by CustomWeather, © 2016

Note: Actual official high and low records may vary slightly from our data, if they occured in-between our weather recording intervals... More about our weather records

Advertising

Florianópolis Weather History for the Previous 24 Hours

Scroll right to see more
 ConditionsComfort  
Time TempWeatherWind HumidityBarometerVisibility
11:00 AM
Wed, May 4
70 °FSunny.5 mph69%30.12 "Hg10 mi
10:00 AM68 °FSunny.1 mph69%30.12 "Hg10 mi
9:00 AM64 °FSunny.2 mph78%30.15 "Hg10 mi
8:00 AM61 °FSunny.1 mph88%30.12 "Hg10 mi
7:00 AM57 °FSunny.2 mph88%30.09 "Hg10 mi
6:00 AM59 °FPassing clouds.No wind88%30.09 "HgN/A
5:00 AM59 °FPassing clouds.3 mph88%30.07 "HgN/A
4:00 AM61 °FPassing clouds.No wind88%30.09 "HgN/A
3:00 AM61 °FPassing clouds.No wind88%30.09 "HgN/A
2:00 AM63 °FPassing clouds.2 mph83%30.09 "HgN/A
1:00 AM63 °FPassing clouds.No wind83%30.12 "HgN/A
12:00 AM63 °FPassing clouds.No wind83%30.12 "HgN/A
11:00 PM
Tue, May 3
64 °FPassing clouds.No wind78%30.12 "HgN/A
10:00 PM64 °FPassing clouds.No wind78%30.12 "HgN/A
9:00 PM64 °FPassing clouds.3 mph83%30.12 "HgN/A
8:00 PM64 °FPassing clouds.No wind83%30.12 "HgN/A
7:00 PM64 °FPassing clouds.2 mph83%30.09 "HgN/A
6:00 PM64 °FPassing clouds.2 mph83%30.09 "HgN/A
5:00 PM68 °FPartly cloudy.2 mph73%30.09 "HgN/A
4:00 PM68 °FBroken clouds.5 mph73%30.09 "HgN/A
3:00 PM68 °FBroken clouds.7 mph69%30.09 "HgN/A
2:00 PM70 °FBroken clouds.9 mph60%30.09 "HgN/A
1:00 PM72 °FBroken clouds.7 mph61%30.12 "HgN/A
12:00 PM70 °FBroken clouds.No wind69%30.15 "HgN/A
Weather by CustomWeather, © 2016

See weather overviewHow to use our weather pages